timestamp,wind_dir_avg,wind_spd_avg,wind_spd_max_dir,wind_spd_gust,battery_voltage,lat,long
2022-12-04 00:04:00+00:00,186.0,7.59,180.0,8.39,12.41,47.59359,-54.27349
2022-12-04 00:14:00+00:00,203.0,9.15,199.0,10.32,12.41,47.59359,-54.27349
2022-12-04 00:24:00+00:00,185.0,8.41,190.0,9.46,12.41,47.59359,-54.27349
2022-12-04 00:34:00+00:00,190.0,7.3,200.0,8.51,12.41,47.59359,-54.27349
2022-12-04 00:44:00+00:00,210.0,6.9,207.0,7.84,12.41,47.59359,-54.27349
2022-12-04 00:54:00+00:00,193.0,6.59,202.0,8.01,12.41,47.59359,-54.27349
2022-12-04 01:04:00+00:00,209.0,7.8,213.0,8.97,12.41,47.59359,-54.27349
2022-12-04 01:14:00+00:00,211.0,5.57,205.0,6.63,12.41,47.59359,-54.27349
2022-12-04 01:24:00+00:00,209.0,7.4,208.0,8.59,12.41,47.59359,-54.27349
2022-12-04 01:34:00+00:00,206.0,7.07,205.0,7.76,12.41,47.59359,-54.27349
2022-12-04 01:44:00+00:00,199.0,7.73,201.0,8.46,12.41,47.59359,-54.27349
2022-12-04 01:54:00+00:00,214.0,7.37,214.0,8.18,12.41,47.59359,-54.27349
2022-12-04 02:04:00+00:00,200.0,7.97,196.0,8.95,12.41,47.59359,-54.27349
2022-12-04 02:14:00+00:00,190.0,6.44,196.0,7.26,12.33,47.59359,-54.27349
2022-12-04 02:24:00+00:00,190.0,7.76,192.0,8.25,12.33,47.59359,-54.27349
2022-12-04 02:34:00+00:00,190.0,7.99,191.0,8.63,12.33,47.59359,-54.27349
2022-12-04 02:44:00+00:00,191.0,8.0,196.0,9.09,12.33,47.59359,-54.27349
2022-12-04 02:54:00+00:00,178.0,7.46,178.0,8.24,12.33,47.59359,-54.27349
2022-12-04 03:04:00+00:00,177.0,8.02,175.0,9.19,12.33,47.59359,-54.27349
2022-12-04 03:14:00+00:00,182.0,8.42,186.0,9.48,12.33,47.59359,-54.27349
2022-12-04 03:24:00+00:00,183.0,8.87,184.0,9.74,12.33,47.59359,-54.27349
2022-12-04 03:34:00+00:00,184.0,8.74,195.0,9.84,12.33,47.59359,-54.27349
2022-12-04 03:44:00+00:00,186.0,8.59,186.0,9.59,12.33,47.59359,-54.27349
2022-12-04 03:54:00+00:00,182.0,7.36,185.0,8.87,12.33,47.59359,-54.27349
2022-12-04 04:04:00+00:00,184.0,8.28,185.0,9.03,12.33,47.59359,-54.27349
2022-12-04 04:14:00+00:00,185.0,8.23,188.0,9.44,12.33,47.59359,-54.27349
2022-12-04 04:24:00+00:00,183.0,8.74,185.0,10.25,12.33,47.59359,-54.27349
2022-12-04 04:34:00+00:00,186.0,8.43,189.0,9.31,12.33,47.59359,-54.27349
2022-12-04 04:44:00+00:00,187.0,9.83,185.0,10.9,12.33,47.59359,-54.27349
2022-12-04 04:54:00+00:00,186.0,10.61,178.0,11.38,12.33,47.59359,-54.27349
2022-12-04 05:04:00+00:00,186.0,10.49,186.0,11.63,12.33,47.59359,-54.27349
2022-12-04 05:14:01+00:00,186.0,9.13,187.0,10.13,12.33,47.59359,-54.27349
2022-12-04 05:24:01+00:00,185.0,9.02,186.0,10.85,12.33,47.59359,-54.27349
2022-12-04 05:34:01+00:00,186.0,9.03,185.0,11.16,12.33,47.59359,-54.27349
2022-12-04 05:44:01+00:00,186.0,8.71,189.0,10.73,12.33,47.59359,-54.27349
2022-12-04 05:54:01+00:00,185.0,9.71,185.0,11.09,12.33,47.59359,-54.27349
2022-12-04 06:04:01+00:00,185.0,9.46,183.0,10.84,12.33,47.59359,-54.27349
2022-12-04 06:14:00+00:00,185.0,9.48,189.0,10.63,12.33,47.59359,-54.27349
2022-12-04 06:24:00+00:00,183.0,8.76,182.0,9.83,12.33,47.59359,-54.27349
2022-12-04 06:34:00+00:00,181.0,9.4,174.0,11.1,12.33,47.59359,-54.27349
2022-12-04 06:44:00+00:00,181.0,8.29,181.0,9.35,12.33,47.59359,-54.27349
2022-12-04 06:54:00+00:00,182.0,8.28,182.0,9.16,12.33,47.59359,-54.27349
2022-12-04 07:04:00+00:00,185.0,8.41,184.0,10.1,12.33,47.59359,-54.27349
2022-12-04 07:14:00+00:00,185.0,7.86,187.0,9.18,12.25,47.59359,-54.27349
2022-12-04 07:24:00+00:00,181.0,7.73,184.0,9.42,12.25,47.59359,-54.27349
2022-12-04 07:34:00+00:00,188.0,7.7,196.0,9.16,12.25,47.59359,-54.27349
2022-12-04 07:44:00+00:00,195.0,8.18,192.0,9.02,12.25,47.59359,-54.27349
2022-12-04 07:54:00+00:00,179.0,8.4,179.0,9.26,12.25,47.59359,-54.27349
2022-12-04 08:04:00+00:00,178.0,8.2,177.0,9.4,12.25,47.59359,-54.27349
2022-12-04 08:14:00+00:00,182.0,8.4,186.0,9.76,12.25,47.59359,-54.27349
2022-12-04 08:24:00+00:00,175.0,8.39,174.0,9.67,12.25,47.59359,-54.27349
2022-12-04 08:34:00+00:00,176.0,8.75,179.0,9.96,12.25,47.59359,-54.27349
2022-12-04 08:44:00+00:00,178.0,8.98,176.0,10.51,12.25,47.59359,-54.27349
2022-12-04 08:54:00+00:00,180.0,8.21,180.0,9.93,12.25,47.59359,-54.27349
2022-12-04 09:04:00+00:00,180.0,8.56,177.0,10.12,12.25,47.59359,-54.27349
2022-12-04 09:14:00+00:00,177.0,7.84,181.0,8.52,12.25,47.59359,-54.27349
2022-12-04 09:24:00+00:00,176.0,9.15,178.0,10.36,12.25,47.59359,-54.27349
2022-12-04 09:34:00+00:00,175.0,9.9,181.0,11.3,12.25,47.59359,-54.27349
2022-12-04 09:44:00+00:00,174.0,9.88,175.0,11.4,12.25,47.59359,-54.27349
2022-12-04 09:54:00+00:00,176.0,9.49,176.0,10.33,12.25,47.59359,-54.27349
2022-12-04 10:04:00+00:00,180.0,9.08,183.0,10.13,12.25,47.59359,-54.27349
2022-12-04 10:14:00+00:00,178.0,9.8,176.0,11.86,12.25,47.59359,-54.27349
2022-12-04 10:24:00+00:00,177.0,10.46,176.0,12.56,12.25,47.59359,-54.27349
2022-12-04 10:34:00+00:00,175.0,9.32,174.0,11.52,12.25,47.59359,-54.27349
2022-12-04 10:44:00+00:00,174.0,8.3,178.0,9.88,12.25,47.59359,-54.27349
2022-12-04 10:54:00+00:00,177.0,9.94,177.0,10.87,12.25,47.59359,-54.27349
2022-12-04 11:04:00+00:00,176.0,9.06,182.0,10.43,12.25,47.59359,-54.27349
2022-12-04 11:14:00+00:00,171.0,9.78,172.0,11.41,12.17,47.59359,-54.27349
2022-12-04 11:24:00+00:00,170.0,10.15,176.0,11.9,12.17,47.59359,-54.27349
2022-12-04 11:34:00+00:00,169.0,10.47,170.0,11.46,12.17,47.59359,-54.27349
2022-12-04 11:44:00+00:00,166.0,10.74,166.0,12.53,12.17,47.59359,-54.27349
2022-12-04 11:54:00+00:00,170.0,9.77,170.0,11.08,12.17,47.59359,-54.27349
2022-12-04 12:04:00+00:00,167.0,10.13,165.0,11.44,12.17,47.59359,-54.27349
2022-12-04 12:14:00+00:00,164.0,10.19,165.0,11.05,13.53,47.59359,-54.27349
2022-12-04 12:24:00+00:00,166.0,9.96,166.0,11.18,13.53,47.59359,-54.27349
2022-12-04 12:34:00+00:00,168.0,8.49,179.0,9.95,13.53,47.59359,-54.27349
2022-12-04 12:44:00+00:00,168.0,10.11,170.0,11.02,13.53,47.59359,-54.27349
2022-12-04 12:54:00+00:00,169.0,10.51,170.0,12.31,13.53,47.59359,-54.27349
2022-12-04 13:04:00+00:00,173.0,10.63,169.0,12.38,13.53,47.59359,-54.27349
2022-12-04 13:14:00+00:00,174.0,8.92,181.0,10.4,12.89,47.59359,-54.27349
2022-12-04 13:24:00+00:00,178.0,9.27,179.0,10.33,12.89,47.59359,-54.27349
2022-12-04 13:34:00+00:00,179.0,8.63,177.0,9.76,12.89,47.59359,-54.27349
2022-12-04 13:44:00+00:00,182.0,10.21,182.0,11.24,12.89,47.59359,-54.27349
2022-12-04 13:54:00+00:00,174.0,8.4,175.0,10.36,12.89,47.59359,-54.27349
2022-12-04 14:04:00+00:00,172.0,10.24,178.0,11.94,12.89,47.59359,-54.27349
2022-12-04 14:14:00+00:00,175.0,10.31,179.0,12.27,13.05,47.59359,-54.27349
2022-12-04 14:24:00+00:00,178.0,10.74,179.0,12.17,13.05,47.59359,-54.27349
2022-12-04 14:34:00+00:00,176.0,11.12,174.0,12.42,13.05,47.59359,-54.27349
2022-12-04 14:44:00+00:00,178.0,9.83,177.0,11.77,13.05,47.59359,-54.27349
2022-12-04 14:54:00+00:00,174.0,9.74,175.0,11.23,13.05,47.59359,-54.27349
2022-12-04 15:04:00+00:00,175.0,11.16,180.0,13.21,13.05,47.59359,-54.27349
2022-12-04 15:14:01+00:00,177.0,10.45,177.0,11.72,13.68,47.59359,-54.27349
2022-12-04 15:24:01+00:00,180.0,9.59,180.0,13.22,13.68,47.59359,-54.27349
2022-12-04 15:34:01+00:00,186.0,9.3,191.0,11.26,13.68,47.59359,-54.27349
2022-12-04 15:44:01+00:00,192.0,9.13,194.0,10.25,13.68,47.59359,-54.27349
2022-12-04 15:54:01+00:00,180.0,8.36,177.0,9.29,13.68,47.59359,-54.27349
2022-12-04 16:04:01+00:00,174.0,8.24,173.0,9.01,13.68,47.59359,-54.27349
2022-12-04 16:14:00+00:00,172.0,7.79,170.0,8.77,13.44,47.59359,-54.27349
2022-12-04 16:24:00+00:00,179.0,6.04,177.0,7.29,13.44,47.59359,-54.27349
2022-12-04 16:34:00+00:00,177.0,7.93,179.0,9.21,13.44,47.59359,-54.27349
2022-12-04 16:44:00+00:00,179.0,7.67,182.0,8.89,13.44,47.59359,-54.27349
2022-12-04 16:54:00+00:00,182.0,8.41,183.0,9.85,13.44,47.59359,-54.27349
2022-12-04 17:04:00+00:00,174.0,8.76,175.0,9.98,13.44,47.59359,-54.27349
2022-12-04 17:14:00+00:00,178.0,10.05,179.0,11.55,13.21,47.59359,-54.27349
2022-12-04 17:24:00+00:00,173.0,11.19,173.0,14.18,13.21,47.59359,-54.27349
2022-12-04 17:34:00+00:00,178.0,11.03,178.0,12.66,13.21,47.59359,-54.27349
2022-12-04 17:44:00+00:00,181.0,8.45,181.0,9.33,13.21,47.59359,-54.27349
2022-12-04 17:54:00+00:00,177.0,9.52,180.0,10.85,13.21,47.59359,-54.27349
2022-12-04 18:04:00+00:00,177.0,10.3,177.0,11.93,13.21,47.59359,-54.27349
2022-12-04 18:14:01+00:00,180.0,9.91,179.0,11.45,12.97,47.59359,-54.27349
2022-12-04 18:24:01+00:00,176.0,7.9,174.0,9.31,12.97,47.59359,-54.27349
2022-12-04 18:34:01+00:00,176.0,7.26,181.0,8.57,12.97,47.59359,-54.27349
2022-12-04 18:44:01+00:00,169.0,9.05,167.0,10.36,12.97,47.59359,-54.27349
2022-12-04 18:54:01+00:00,170.0,7.85,158.0,9.79,12.97,47.59359,-54.27349
2022-12-04 19:04:01+00:00,170.0,8.82,168.0,10.27,12.97,47.59359,-54.27349
2022-12-04 19:14:00+00:00,175.0,8.88,181.0,10.23,12.65,47.59359,-54.27349
2022-12-04 19:24:00+00:00,173.0,9.98,171.0,12.52,12.65,47.59359,-54.27349
2022-12-04 19:34:00+00:00,175.0,8.49,171.0,10.46,12.65,47.59359,-54.27349
2022-12-04 19:44:00+00:00,172.0,9.8,163.0,12.65,12.65,47.59359,-54.27349
2022-12-04 19:54:00+00:00,174.0,6.73,179.0,7.38,12.65,47.59359,-54.27349
2022-12-04 20:04:00+00:00,178.0,8.0,178.0,9.61,12.65,47.59359,-54.27349
2022-12-04 20:14:00+00:00,166.0,7.23,166.0,8.36,12.49,47.59359,-54.27349
2022-12-04 20:24:00+00:00,169.0,8.82,166.0,10.3,12.49,47.59359,-54.27349
2022-12-04 20:34:00+00:00,173.0,8.79,171.0,10.41,12.49,47.59359,-54.27349
2022-12-04 20:44:00+00:00,176.0,8.64,173.0,9.39,12.49,47.59359,-54.27349
2022-12-04 20:54:00+00:00,173.0,9.7,173.0,12.93,12.49,47.59359,-54.27349
2022-12-04 21:04:00+00:00,185.0,7.49,188.0,8.56,12.49,47.59359,-54.27349
2022-12-04 21:14:00+00:00,180.0,9.46,179.0,10.7,12.49,47.59359,-54.27349
2022-12-04 21:24:00+00:00,184.0,10.3,183.0,11.95,12.49,47.59359,-54.27349
2022-12-04 21:34:00+00:00,179.0,9.1,182.0,10.52,12.49,47.59359,-54.27349
2022-12-04 21:44:00+00:00,178.0,8.52,177.0,10.06,12.49,47.59359,-54.27349
2022-12-04 21:54:00+00:00,173.0,10.63,173.0,11.91,12.49,47.59359,-54.27349
2022-12-04 22:04:00+00:00,174.0,9.73,175.0,11.65,12.49,47.59359,-54.27349
2022-12-04 22:14:00+00:00,175.0,9.23,175.0,9.91,12.41,47.59359,-54.27349
2022-12-04 22:24:00+00:00,175.0,10.01,177.0,11.23,12.41,47.59359,-54.27349
2022-12-04 22:34:00+00:00,174.0,8.95,177.0,10.47,12.41,47.59359,-54.27349
2022-12-04 22:44:00+00:00,168.0,10.19,172.0,11.76,12.41,47.59359,-54.27349
2022-12-04 22:54:00+00:00,162.0,10.23,156.0,11.23,12.41,47.59359,-54.27349
2022-12-04 23:04:00+00:00,168.0,11.82,162.0,14.68,12.41,47.59359,-54.27349
2022-12-04 23:14:00+00:00,163.0,12.43,164.0,13.69,12.41,47.59359,-54.27349
2022-12-04 23:24:00+00:00,171.0,11.97,171.0,13.43,12.41,47.59359,-54.27349
2022-12-04 23:34:00+00:00,164.0,11.37,159.0,13.92,12.41,47.59359,-54.27349
2022-12-04 23:44:00+00:00,168.0,10.8,168.0,11.93,12.41,47.59359,-54.27349
2022-12-04 23:54:00+00:00,157.0,13.62,153.0,16.37,12.41,47.59359,-54.27349
